 day,  time,  air_temp(C),  RH(%),  ground_temp10cm(C),  ground_temp20cm(C),  ground_temp40cm(C),  precipitation(mm/h),  Solar_Radiation(MJ/m2h),  lack, 
 01/04/01, 01:00,  -7.9,  90,   0.7,   1.4,   2.4,   0.0,  0.00, 
 01/04/01, 02:00,  -7.5,  87,   0.7,   1.4,   2.3,   0.0,  0.00, 
 01/04/01, 03:00,  -7.9,  87,   0.7,   1.3,   2.3,   0.5,  0.00, 
 01/04/01, 04:00,  -7.3,  81,   0.6,   1.3,   2.2,   0.0,  0.00, 
 01/04/01, 05:00,  -7.6,  90,   0.7,   1.3,   2.3,   0.0,  0.00, 
 01/04/01, 06:00,  -7.2,  86,   0.6,   1.3,   2.2,   0.0,  0.00, 
 01/04/01, 07:00,  -6.7,  89,   0.6,   1.3,   2.2,   0.0,  0.12, 
 01/04/01, 08:00,  -6.0,  88,   0.5,   1.3,   2.2,   0.0,  0.39, 
 01/04/01, 09:00,  -4.9,  88,   0.6,   1.3,   2.3,   0.0,  0.60, 
 01/04/01, 10:00,  -3.1,  82,   0.6,   1.3,   2.3,   0.5,  1.10, 
 01/04/01, 11:00,  -3.4,  85,   0.6,   1.3,   2.3,   0.0,  0.88, 
 01/04/01, 12:00,  -3.8,  88,   0.6,   1.3,   2.3,   0.0,  0.78, 
 01/04/01, 13:00,  -1.3,  76,   0.6,   1.3,   2.3,   0.0,  2.15, 
 01/04/01, 14:00,  -2.7,  87,   0.6,   1.3,   2.3,   0.0,  1.20, 
 01/04/01, 15:00,  -2.1,  70,   0.6,   1.3,   2.3,   0.0,  1.71, 
 01/04/01, 16:00,  -1.5,  66,   0.6,   1.3,   2.3,   0.0,  1.32, 
 01/04/01, 17:00,  -2.3,  67,   0.6,   1.3,   2.3,   0.5,  1.24, 
 01/04/01, 18:00,  -3.1,  65,   0.6,   1.2,   2.3,   0.0,  0.32, 
 01/04/01, 19:00,  -5.1,  81,   0.6,   1.2,   2.3,   0.0,  0.00, 
 01/04/01, 20:00,  -5.6,  75,   0.6,   1.2,   2.3,   0.0,  0.00, 
 01/04/01, 21:00,  -6.0,  75,   0.6,   1.2,   2.3,   0.0,  0.00, 
 01/04/01, 22:00,  -4.4,  71,   0.6,   1.2,   2.3,   0.0,  0.00, 
 01/04/01, 23:00,  -4.2,  73,   0.5,   1.2,   2.2,   0.0,  0.00, 
 01/04/02, 00:00,  -3.7,  76,   0.5,   1.2,   2.2,   0.0,  0.00, 
 01/04/02, 01:00,  -4.3,  81,   0.5,   1.2,   2.2,   0.0,  0.00, 
 01/04/02, 02:00,  -4.0,  84,   0.5,   1.2,   2.2,   0.0,  0.00, 
 01/04/02, 03:00,  -4.1,  84,   0.5,   1.2,   2.2,   0.5,  0.00, 
 01/04/02, 04:00,  -4.2,  87,   0.5,   1.2,   2.2,   0.0,  0.00, 
 01/04/02, 05:00,  -3.8,  84,   0.5,   1.2,   2.2,   0.0,  0.00, 
 01/04/02, 06:00,  -3.5,  80,   0.5,   1.2,   2.2,   0.0,  0.00, 
 01/04/02, 07:00,  -2.3,  77,   0.5,   1.2,   2.2,   0.0,  0.33, 
 01/04/02, 08:00,  -0.2,  63,   0.4,   1.2,   2.2,   0.0,  1.25, 
 01/04/02, 09:00,   1.5,  57,   0.4,   1.2,   2.2,   0.0,  2.03, 
 01/04/02, 10:00,   3.6,  51,   0.5,   1.2,   2.2,   0.0,  2.48, 
 01/04/02, 11:00,   4.9,  40,   0.5,   1.2,   2.2,   0.0,  3.15, 
 01/04/02, 12:00,   3.8,  44,   0.5,   1.2,   2.2,   0.0,  1.75, 
 01/04/02, 13:00,   4.9,  47,   0.5,   1.2,   2.2,   0.0,  1.63, 
 01/04/02, 14:00,   5.6,  52,   0.5,   1.1,   2.2,   0.0,  2.45, 
 01/04/02, 15:00,   5.9,  52,   0.5,   1.1,   2.2,   0.0,  2.60, 
 01/04/02, 16:00,   6.4,  53,   0.5,   1.1,   2.2,   0.0,  1.85, 
 01/04/02, 17:00,   4.8,  65,   0.5,   1.1,   2.2,   0.0,  1.28, 
 01/04/02, 18:00,   4.3,  69,   0.5,   1.1,   2.2,   0.0,  0.33, 
 01/04/02, 19:00,   3.5,  74,   0.5,   1.1,   2.1,   0.0,  0.00, 
 01/04/02, 20:00,   3.4,  77,   0.5,   1.1,   2.2,   0.0,  0.00, 
 01/04/02, 21:00,   3.7,  77,   0.5,   1.1,   2.1,   0.0,  0.00, 
 01/04/02, 22:00,   3.8,  81,   0.5,   1.1,   2.1,   0.0,  0.00, 
 01/04/02, 23:00,   3.7,  90,   0.5,   1.1,   2.2,   0.0,  0.00, 
 01/04/03, 00:00,   3.4,  87,   0.5,   1.1,   2.1,   0.0,  0.00, 
 01/04/03, 01:00,   3.5,  82,   0.5,   1.1,   2.1,   0.0,  0.00, 
 01/04/03, 02:00,   3.1,  87,   0.5,   1.1,   2.1,   0.0,  0.00, 
 01/04/03, 03:00,   3.0,  90,   0.5,   1.0,   2.1,   0.0,  0.00, 
 01/04/03, 04:00,   3.4,  84,   0.5,   1.0,   2.1,   0.0,  0.00, 
 01/04/03, 05:00,   3.4,  86,   0.5,   1.0,   2.1,   0.0,  0.00, 
 01/04/03, 06:00,   3.2,  86,   0.5,   1.0,   2.1,   0.0,  0.00, 
 01/04/03, 07:00,   3.0,  92,   0.5,   1.0,   2.1,   0.0,  0.00, 
 01/04/03, 08:00,   2.6,  99,   0.5,   1.0,   2.1,   0.0,  0.00, 
 01/04/03, 09:00,   2.8,  99,   0.4,   1.0,   2.0,   0.0,  0.00, 
 01/04/03, 10:00,   2.6,  99,   0.5,   1.0,   2.0,   0.0,  0.01, 
 01/04/03, 11:00,   2.6,  99,   0.5,   1.0,   2.0,   0.0,  0.04, 
 01/04/03, 12:00,   1.0,  99,   0.5,   1.0,   2.0,   1.0,  0.11, 
 01/04/03, 13:00,  -1.0,  99,   0.5,   1.0,   2.0,   2.5,  0.19, 
 01/04/03, 14:00,  -1.1,  99,   0.5,   1.0,   2.0,   1.5,  0.19, 
 01/04/03, 15:00,  -0.7,  99,   0.5,   1.1,   2.0,   1.0,  0.19, 
 01/04/03, 16:00,  -1.5,  99,   0.6,   1.1,   2.0,   0.5,  0.21, 
 01/04/03, 17:00,  -2.0,  99,   0.6,   1.1,   2.0,   0.5,  0.11, 
 01/04/03, 18:00,  -2.3,  97,   0.6,   1.1,   2.0,   0.5,  0.05, 
 01/04/03, 19:00,  -2.6,  96,   0.6,   1.1,   2.0,   0.0,  0.00, 
 01/04/03, 20:00,  -2.1,  83,   0.6,   1.1,   2.0,   0.5,  0.00, 
 01/04/03, 21:00,  -3.7,  96,   0.6,   1.1,   2.0,   0.0,  0.00, 
 01/04/03, 22:00,  -3.5,  93,   0.6,   1.0,   2.0,   0.0,  0.00, 
 01/04/03, 23:00,  -3.6,  94,   0.6,   1.0,   2.0,   0.0,  0.00, 
 01/04/04, 00:00,  -4.1,  92,   0.6,   1.0,   2.0,   0.0,  0.00, 
 01/04/04, 01:00,  -4.2,  93,   0.6,   1.0,   2.0,   0.5,  0.00, 
 01/04/04, 02:00,  -4.5,  93,   0.6,   1.0,   2.0,   0.0,  0.00, 
 01/04/04, 03:00,  -4.8,  88,   0.6,   1.0,   2.0,   0.0,  0.00, 
 01/04/04, 04:00,  -4.9,  89,   0.6,   1.1,   2.0,   0.0,  0.00, 
 01/04/04, 05:00,  -5.2,  93,   0.6,   1.0,   2.0,   0.0,  0.00, 
 01/04/04, 06:00,  -5.5,  93,   0.6,   1.0,   2.0,   0.0,  0.00, 
 01/04/04, 07:00,  -5.2,  91,   0.6,   1.0,   2.0,   0.5,  0.20, 
 01/04/04, 08:00,  -4.6,  92,   0.5,   1.0,   2.0,   0.0,  0.94, 
 01/04/04, 09:00,  -4.6,  86,   0.5,   1.0,   2.0,   0.0,  0.67, 
 01/04/04, 10:00,  -3.6,  90,   0.5,   1.0,   2.0,   0.0,  1.04, 
 01/04/04, 11:00,  -1.7,  69,   0.5,   1.1,   2.0,   0.0,  2.37, 
 01/04/04, 12:00,  -1.1,  60,   0.6,   1.1,   2.0,   0.0,  3.38, 
 01/04/04, 13:00,  -0.2,  58,   0.6,   1.1,   2.0,   0.0,  3.33, 
 01/04/04, 14:00,   0.4,  52,   0.6,   1.1,   2.1,   0.0,  3.18, 
 01/04/04, 15:00,   0.7,  46,   0.7,   1.1,   2.0,   0.0,  2.58, 
 01/04/04, 16:00,   1.5,  48,   0.7,   1.1,   2.1,   0.0,  1.99, 
 01/04/04, 17:00,   0.0,  59,   0.7,   1.1,   2.0,   0.0,  1.19, 
 01/04/04, 18:00,  -1.2,  65,   0.7,   1.1,   2.0,   0.0,  0.41, 
 01/04/04, 19:00,  -2.7,  77,   0.7,   1.1,   2.0,   0.0,  0.00, 
 01/04/04, 20:00,  -4.0,  85,   0.7,   1.1,   2.0,   0.0,  0.00, 
 01/04/04, 21:00,  -4.5,  88,   0.6,   1.2,   2.0,   0.0,  0.00, 
 01/04/04, 22:00,  -4.2,  84,   0.6,   1.2,   2.0,   0.0,  0.00, 
 01/04/04, 23:00,  -4.9,  86,   0.6,   1.2,   2.0,   0.0,  0.00, 
 01/04/05, 00:00,  -3.6,  68,   0.6,   1.1,   2.0,   0.0,  0.00, 
 01/04/05, 01:00,  -0.5,  35,   0.6,   1.2,   2.0,   0.0,  0.00, 
 01/04/05, 02:00,  -0.9,  35,   0.5,   1.2,   2.0,   0.0,  0.00, 
 01/04/05, 03:00,  -1.7,  35,   0.5,   1.0,   2.0,   0.0,  0.00, 
 01/04/05, 04:00,  -1.1,  32,   0.5,   1.1,   2.0,   0.0,  0.00, 
 01/04/05, 05:00,  -0.7,  35,   0.5,   1.0,   2.0,   0.0,  0.00, 
 01/04/05, 06:00,   0.4,  36,   0.5,   1.0,   2.0,   0.0,  0.01, 
 01/04/05, 07:00,   3.1,  27,   0.5,   1.0,   2.0,   0.0,  0.45, 
 01/04/05, 08:00,   5.5,  33,   0.5,   1.0,   2.0,   0.0,  1.34, 
 01/04/05, 09:00,   7.8,  27,   0.5,   1.0,   2.0,   0.0,  2.14, 
 01/04/05, 10:00,   9.9,  31,   0.5,   1.0,   2.0,   0.0,  2.67, 
 01/04/05, 11:00,  10.9,  23,   0.4,   1.1,   2.0,   0.0,  3.22, 
 01/04/05, 12:00,  12.6,  20,   0.5,   1.1,   2.0,   0.0,  3.39, 
 01/04/05, 13:00,  11.4,  23,   1.2,   1.0,   2.0,   0.0,  3.05, 
 01/04/05, 14:00,  12.6,  23,   2.1,   1.1,   2.0,   0.0,  2.82, 
 01/04/05, 15:00,  11.4,  24,   2.5,   1.2,   1.9,   0.0,  1.91, 
 01/04/05, 16:00,  10.5,  27,   2.7,   1.3,   1.9,   0.0,  1.49, 
 01/04/05, 17:00,   8.1,  32,   2.8,   1.5,   1.9,   0.0,  0.96, 
 01/04/05, 18:00,   6.8,  33,   2.8,   1.6,   1.9,   0.5,  0.36, 
 01/04/05, 19:00,   4.2,  43,   2.7,   1.8,   1.9,   0.0,  0.00, 
 01/04/05, 20:00,   4.2,  48,   2.5,   1.9,   1.9,   0.0,  0.00, 
 01/04/05, 21:00,   4.3,  47,   2.4,   1.9,   1.9,   0.0,  0.00, 
 01/04/05, 22:00,   3.5,  53,   2.2,   2.0,   1.9,   0.0,  0.00, 
 01/04/05, 23:00,   3.6,  52,   2.1,   2.0,   2.0,   0.0,  0.00, 
 01/04/06, 00:00,   3.8,  44,   1.9,   2.0,   2.0,   0.0,  0.00, 
 01/04/06, 01:00,   3.6,  47,   1.8,   2.0,   2.0,   0.0,  0.00, 
 01/04/06, 02:00,   3.0,  52,   1.7,   2.0,   2.0,   0.0,  0.00, 
 01/04/06, 03:00,   1.1,  63,   1.6,   2.0,   2.0,   0.0,  0.00, 
 01/04/06, 04:00,   1.3,  67,   1.5,   2.0,   2.1,   0.0,  0.00, 
 01/04/06, 05:00,   4.5,  44,   1.4,   2.0,   2.1,   0.0,  0.00, 
 01/04/06, 06:00,   4.5,  53,   1.3,   1.9,   2.1,   0.0,  0.00, 
 01/04/06, 07:00,   5.5,  57,   1.2,   1.9,   2.1,   0.0,  0.50, 
 01/04/06, 08:00,   6.7,  47,   1.2,   1.9,   2.1,   0.0,  1.31, 
 01/04/06, 09:00,   8.2,  30,   1.1,   1.8,   2.1,   0.0,  1.92, 
 01/04/06, 10:00,   9.1,  49,   1.3,   1.8,   2.1,   0.0,  2.73, 
 01/04/06, 11:00,  10.1,  45,   2.1,   1.8,   2.2,   0.0,  3.02, 
 01/04/06, 12:00,  12.2,  36,   3.3,   1.8,   2.2,   0.0,  3.24, 
 01/04/06, 13:00,  12.3,  24,   4.5,   1.9,   2.2,   0.0,  3.27, 
 01/04/06, 14:00,  12.7,  23,   5.3,   2.0,   2.2,   0.0,  3.02, 
 01/04/06, 15:00,  12.5,  19,   5.4,   2.3,   2.2,   0.0,  2.57, 
 01/04/06, 16:00,  11.9,  22,   5.3,   2.5,   2.2,   0.0,  1.93, 
 01/04/06, 17:00,  10.7,  29,   5.2,   2.7,   2.2,   0.0,  1.15, 
 01/04/06, 18:00,   8.4,  45,   5.0,   2.9,   2.2,   0.0,  0.33, 
 01/04/06, 19:00,   6.3,  51,   4.7,   3.1,   2.2,   0.0,  0.00, 
 01/04/06, 20:00,   7.2,  49,   4.5,   3.2,   2.2,   0.0,  0.00, 
 01/04/06, 21:00,   6.5,  61,   4.2,   3.1,   2.2,   0.0,  0.00, 
 01/04/06, 22:00,   5.8,  75,   4.0,   3.3,   2.3,   0.0,  0.00, 
 01/04/06, 23:00,   5.0,  78,   3.8,   3.3,   2.3,   0.0,  0.00, 
 01/04/07, 00:00,   5.0,  76,   3.6,   3.3,   2.3,   0.0,  0.00, 
 01/04/07, 01:00,   3.4,  82,   3.4,   3.2,   2.4,   0.0,  0.00, 
 01/04/07, 02:00,   4.0,  78,   3.2,   3.1,   2.4,   0.0,  0.00, 
 01/04/07, 03:00,   4.0,  81,   3.1,   3.1,   2.4,   0.0,  0.00, 
 01/04/07, 04:00,   2.0,  90,   2.9,   3.1,   2.5,   0.0,  0.00, 
 01/04/07, 05:00,   2.3,  86,   2.7,   3.1,   2.5,   0.0,  0.00, 
 01/04/07, 06:00,   4.1,  71,   2.6,   3.1,   2.5,   0.0,  0.00, 
 01/04/07, 07:00,   5.3,  64,   2.4,   2.9,   2.5,   0.0,  0.45, 
 01/04/07, 08:00,   8.1,  49,   2.4,   2.9,   2.6,   0.0,  1.22, 
 01/04/07, 09:00,   9.9,  49,   2.5,   2.9,   2.6,   0.0,  2.01, 
 01/04/07, 10:00,  10.0,  51,   2.8,   2.8,   2.6,   0.0,  2.23, 
 01/04/07, 11:00,  10.5,  48,   3.5,   2.9,   2.6,   0.0,  2.88, 
 01/04/07, 12:00,  12.0,  39,   4.6,   2.9,   2.6,   0.0,  3.25, 
 01/04/07, 13:00,  13.4,  36,   5.9,   2.9,   2.7,   0.5,  3.24, 
 01/04/07, 14:00,  13.5,  35,   6.7,   3.1,   2.7,   0.0,  2.99, 
 01/04/07, 15:00,  14.2,  37,   6.8,   3.3,   2.7,   0.0,  2.38, 
 01/04/07, 16:00,  11.6,  45,   6.7,   3.6,   2.7,   0.0,  1.57, 
 01/04/07, 17:00,  10.8,  50,   6.6,   3.8,   2.7,   0.0,  0.98, 
 01/04/07, 18:00,   9.0,  61,   6.4,   3.9,   2.7,   0.0,  0.34, 
 01/04/07, 19:00,   6.0,  73,   6.2,   4.0,   2.7,   0.0,  0.00, 
 01/04/07, 20:00,   7.1,  70,   5.9,   4.1,   2.8,   0.0,  0.00, 
 01/04/07, 21:00,   6.2,  70,   5.6,   4.2,   2.8,   0.0,  0.00, 
 01/04/07, 22:00,   4.9,  76,   5.3,   4.2,   2.8,   0.0,  0.00, 
 01/04/07, 23:00,   5.2,  74,   5.1,   4.2,   2.9,   0.0,  0.00, 
 01/04/08, 00:00,   6.4,  70,   4.8,   4.2,   2.9,   0.0,  0.00, 
 01/04/08, 01:00,   5.8,  66,   4.6,   4.2,   2.9,   0.0,  0.00, 
 01/04/08, 02:00,   3.7,  78,   4.4,   4.2,   3.0,   0.0,  0.00, 
 01/04/08, 03:00,   2.9,  83,   4.2,   4.2,   3.0,   0.0,  0.00, 
 01/04/08, 04:00,   3.1,  83,   4.0,   4.1,   3.0,   0.0,  0.00, 
 01/04/08, 05:00,   3.4,  81,   3.8,   4.1,   3.1,   0.0,  0.00, 
 01/04/08, 06:00,   4.1,  79,   3.6,   4.0,   3.1,   0.0,  0.01, 
 01/04/08, 07:00,   5.1,  79,   3.5,   4.0,   3.1,   0.0,  0.47, 
 01/04/08, 08:00,   7.6,  65,   3.5,   4.0,   3.1,   0.0,  1.24, 
 01/04/08, 09:00,   9.6,  56,   3.6,   3.9,   3.2,   0.0,  1.97, 
 01/04/08, 10:00,  10.2,  61,   3.8,   3.9,   3.2,   0.0,  2.59, 
 01/04/08, 11:00,  11.1,  61,   4.6,   3.8,   3.2,   0.0,  3.07, 
 01/04/08, 12:00,  11.7,  59,   5.7,   3.8,   3.2,   0.0,  2.19, 
 01/04/08, 13:00,  14.6,  52,   6.6,   3.9,   3.2,   0.0,  3.22, 
 01/04/08, 14:00,  15.0,  49,   7.3,   4.1,   3.3,   0.0,  2.93, 
 01/04/08, 15:00,  14.2,  50,   7.5,   4.1,   3.3,   0.0,  2.48, 
 01/04/08, 16:00,  12.8,  54,   7.5,   4.4,   3.3,   0.0,  1.79, 
 01/04/08, 17:00,  12.5,  56,   7.5,   4.6,   3.3,   0.0,  1.12, 
 01/04/08, 18:00,  10.3,  68,   7.4,   4.8,   3.3,   0.0,  0.28, 
 01/04/08, 19:00,   9.6,  80,   7.3,   5.0,   3.3,   0.0,  0.00, 
 01/04/08, 20:00,   8.1,  94,   7.2,   5.1,   3.4,   0.0,  0.00, 
 01/04/08, 21:00,   6.5,  98,   6.9,   5.2,   3.4,   0.0,  0.00, 
 01/04/08, 22:00,   6.6,  92,   6.7,   5.2,   3.4,   0.0,  0.00, 
 01/04/08, 23:00,   4.8,  96,   6.5,   5.2,   3.4,   0.0,  0.00, 
 01/04/09, 00:00,   6.0,  96,   6.2,   5.2,   3.5,   0.0,  0.00, 
 01/04/09, 01:00,   5.7,  96,   6.1,   5.2,   3.5,   0.0,  0.00, 
 01/04/09, 02:00,   3.9,  99,   5.9,   5.2,   3.5,   0.0,  0.00, 
 01/04/09, 03:00,   4.3,  99,   5.7,   5.2,   3.6,   0.0,  0.00, 
 01/04/09, 04:00,   4.8,  97,   5.5,   5.2,   3.6,   0.0,  0.00, 
 01/04/09, 05:00,   4.2,  95,   5.3,   5.2,   3.6,   0.0,  0.00, 
 01/04/09, 06:00,   6.9,  84,   5.2,   5.1,   3.7,   0.0,  0.00, 
 01/04/09, 07:00,   7.6,  78,   5.1,   5.1,   3.7,   0.0,  0.30, 
 01/04/09, 08:00,   9.1,  74,   5.0,   5.1,   3.7,   0.0,  0.97, 
 01/04/09, 09:00,  10.0,  74,   5.1,   4.9,   3.8,   0.0,  1.94, 
 01/04/09, 10:00,  12.9,  64,   5.4,   5.0,   3.8,   0.0,  2.44, 
 01/04/09, 11:00,  13.5,  61,   6.1,   4.9,   3.8,   0.0,  2.85, 
 01/04/09, 12:00,  14.8,  53,   7.2,   5.0,   3.8,   0.0,  3.22, 
 01/04/09, 13:00,  15.9,  47,   8.3,   5.0,   3.9,   0.0,  3.10, 
 01/04/09, 14:00,  16.6,  45,   9.1,   5.2,   3.9,   0.0,  2.58, 
 01/04/09, 15:00,  16.2,  47,   9.3,   5.3,   3.9,   0.0,  2.30, 
 01/04/09, 16:00,  14.0,  52,   9.4,   5.6,   3.9,   0.0,  1.38, 
 01/04/09, 17:00,  13.1,  56,   9.4,   5.9,   4.0,   0.0,  0.77, 
 01/04/09, 18:00,  10.2,  67,   9.3,   6.0,   4.1,   0.0,  0.22, 
 01/04/09, 19:00,   7.6,  77,   9.0,   6.2,   4.1,   0.0,  0.00, 
 01/04/09, 20:00,   8.1,  76,   8.7,   6.2,   4.0,   0.0,  0.00, 
 01/04/09, 21:00,   7.3,  81,   8.4,   6.3,   4.0,   0.0,  0.00, 
 01/04/09, 22:00,   6.5,  79,   8.0,   6.5,   4.1,   0.0,  0.00, 
 01/04/09, 23:00,   6.8,  78,   7.7,   6.5,   4.1,   0.0,  0.00, 
 01/04/10, 00:00,   6.9,  75,   7.4,   6.5,   4.1,   0.0,  0.00, 
 01/04/10, 01:00,   8.5,  67,   7.2,   6.5,   4.2,   0.0,  0.00, 
 01/04/10, 02:00,   7.1,  68,   6.9,   6.3,   4.2,   0.0,  0.00, 
 01/04/10, 03:00,   8.1,  59,   6.6,   6.3,   4.3,   0.0,  0.00, 
 01/04/10, 04:00,   6.4,  68,   6.4,   6.2,   4.3,   0.0,  0.00, 
 01/04/10, 05:00,   7.3,  57,   6.2,   6.1,   4.3,   0.0,  0.00, 
 01/04/10, 06:00,   7.2,  50,   5.9,   6.1,   4.4,   0.0,  0.03, 
 01/04/10, 07:00,  11.7,  33,   5.8,   6.0,   4.4,   0.0,  0.42, 
 01/04/10, 08:00,  13.7,  31,   5.7,   5.9,   4.4,   0.0,  1.16, 
 01/04/10, 09:00,  14.0,  41,   5.9,   5.8,   4.5,   0.0,  1.67, 
 01/04/10, 10:00,  16.6,  34,   6.3,   5.9,   4.5,   0.0,  2.31, 
 01/04/10, 11:00,  17.3,  35,   7.1,   5.7,   4.5,   0.0,  2.81, 
 01/04/10, 12:00,  18.3,  21,   8.0,   5.7,   4.5,   0.0,  3.09, 
 01/04/10, 13:00,  19.9,  20,   9.1,   5.9,   4.5,   0.0,  3.10, 
 01/04/10, 14:00,  19.9,  24,   9.7,   6.1,   4.6,   0.0,  2.81, 
 01/04/10, 15:00,  18.5,  26,   9.7,   6.3,   4.6,   0.0,  2.55, 
 01/04/10, 16:00,  18.0,  28,   9.7,   6.5,   4.6,   0.0,  2.50, 
 01/04/10, 17:00,  17.0,  30,   9.8,   6.7,   4.6,   0.0,  2.48, 
 01/04/10, 18:00,  13.9,  40,   9.7,   6.8,   4.6,   0.0,  0.30, 
 01/04/10, 19:00,  10.5,  51,   9.4,   7.0,   4.6,   0.0,  0.00, 
 01/04/10, 20:00,  10.8,  57,   9.1,   7.1,   4.7,   0.0,  0.00, 
 01/04/10, 21:00,   8.3,  81,   8.7,   7.1,   4.7,   0.0,  0.00, 
 01/04/10, 22:00,   8.1,  82,   8.4,   7.2,   4.7,   0.0,  0.00, 
 01/04/10, 23:00,   6.5,  86,   8.1,   7.2,   4.8,   0.0,  0.00, 
 01/04/11, 00:00,   7.0,  79,   7.9,   7.1,   4.8,   0.0,  0.00, 
 01/04/11, 01:00,   7.4,  85,   7.6,   7.1,   4.8,   0.0,  0.00, 
 01/04/11, 02:00,   6.1,  84,   7.3,   7.0,   4.9,   0.0,  0.00, 
 01/04/11, 03:00,   7.2,  77,   7.2,   7.0,   4.9,   0.0,  0.00, 
 01/04/11, 04:00,   7.8,  62,   6.9,   6.9,   4.9,   0.0,  0.00, 
 01/04/11, 05:00,   7.4,  60,   6.7,   6.8,   5.0,   0.0,  0.00, 
 01/04/11, 06:00,  10.2,  46,   6.5,   6.8,   5.0,   0.0,  0.04, 
 01/04/11, 07:00,  10.0,  49,   6.2,   6.7,   5.0,   0.0,  0.48, 
 01/04/11, 08:00,  13.5,  41,   6.3,   6.6,   5.0,   0.0,  1.18, 
 01/04/11, 09:00,  14.5,  40,   6.5,   6.5,   5.1,   0.0,  1.97, 
 01/04/11, 10:00,  15.1,  49,   6.8,   6.5,   5.1,   0.0,  2.59, 
 01/04/11, 11:00,  15.6,  43,   7.5,   6.3,   5.1,   0.0,  2.84, 
 01/04/11, 12:00,  16.7,  36,   8.6,   6.3,   5.1,   0.0,  3.06, 
 01/04/11, 13:00,  16.8,  37,   9.6,   6.5,   5.1,   0.0,  2.94, 
 01/04/11, 14:00,  18.3,  33,  10.3,   6.7,   5.2,   0.0,  2.47, 
 01/04/11, 15:00,  17.6,  31,  10.4,   6.9,   5.2,   0.0,  2.34, 
 01/04/11, 16:00,  15.8,  33,  10.4,   7.1,   5.2,   0.0,  1.24, 
 01/04/11, 17:00,  15.6,  23,  10.4,   7.2,   5.2,   0.0,  0.65, 
 01/04/11, 18:00,  11.2,  40,  10.2,   7.4,   5.2,   0.0,  0.29, 
 01/04/11, 19:00,  13.5,  25,   9.8,   7.5,   5.2,   0.0,  0.00, 
 01/04/11, 20:00,  11.2,  32,   9.5,   7.6,   5.2,   0.0,  0.00, 
 01/04/11, 21:00,  10.7,  50,   9.2,   7.7,   5.3,   0.0,  0.00, 
 01/04/11, 22:00,   9.4,  74,   8.9,   7.7,   5.3,   0.5,  0.00, 
 01/04/11, 23:00,   8.3,  75,   8.6,   7.7,   5.3,   0.0,  0.00, 
 01/04/12, 00:00,   7.4,  81,   8.4,   7.7,   5.4,   0.0,  0.00, 
 01/04/12, 01:00,   8.3,  78,   8.2,   7.6,   5.4,   0.0,  0.00, 
 01/04/12, 02:00,   8.1,  80,   7.9,   7.6,   5.4,   0.0,  0.00, 
 01/04/12, 03:00,   8.8,  75,   7.7,   7.5,   5.4,   0.0,  0.00, 
 01/04/12, 04:00,   9.5,  70,   7.5,   7.5,   5.5,   0.0,  0.00, 
 01/04/12, 05:00,   6.8,  83,   7.3,   7.3,   5.5,   0.0,  0.00, 
 01/04/12, 06:00,   7.9,  88,   7.2,   7.2,   5.5,   0.0,  0.00, 
 01/04/12, 07:00,   9.0,  80,   7.2,   7.2,   5.6,   0.0,  0.19, 
 01/04/12, 08:00,   9.1,  83,   7.1,   7.2,   5.6,   0.0,  0.39, 
 01/04/12, 09:00,  10.1,  76,   7.2,   7.1,   5.6,   0.0,  0.66, 
 01/04/12, 10:00,   9.2,  84,   7.3,   7.1,   5.6,   0.0,  0.32, 
 01/04/12, 11:00,   8.0,  99,   7.4,   7.0,   5.6,   0.0,  0.19, 
 01/04/12, 12:00,   5.9,  99,   7.4,   7.0,   5.6,   0.0,  0.09, 
 01/04/12, 13:00,   5.0,  99,   7.4,   7.0,   5.7,   4.5,  0.12, 
 01/04/12, 14:00,   3.8,  99,   7.3,   7.0,   5.7,   1.5,  0.08, 
 01/04/12, 15:00,   1.6,  99,   7.2,   7.0,   5.7,   1.0,  0.15, 
 01/04/12, 16:00,   0.7,  99,   7.0,   7.0,   5.7,   1.5,  0.16, 
 01/04/12, 17:00,   0.5,  99,   6.7,   6.9,   5.7,   2.0,  0.07, 
 01/04/12, 18:00,   0.6,  98,   6.4,   6.9,   5.7,   1.0,  0.02, 
 01/04/12, 19:00,   0.0,  99,   6.2,   6.8,   5.8,   0.5,  0.00, 
 01/04/12, 20:00,  -0.3,  97,   5.9,   6.8,   5.7,   0.5,  0.00, 
 01/04/12, 21:00,  -0.6,  97,   5.8,   6.7,   5.8,   0.0,  0.00, 
 01/04/12, 22:00,  -0.7,  92,   5.6,   6.6,   5.7,   0.5,  0.00, 
 01/04/12, 23:00,  -1.0,  99,   5.5,   6.5,   5.7,   0.0,  0.00, 
 01/04/13, 00:00,  -1.2,  99,   5.3,   6.3,   5.7,   0.0,  0.00, 
 01/04/13, 01:00,  -2.0,  86,   5.2,   6.2,   5.7,   0.5,  0.00, 
 01/04/13, 02:00,  -2.3,  90,   5.1,   6.2,   5.7,   0.0,  0.00, 
 01/04/13, 03:00,  -2.0,  74,   5.1,   6.1,   5.7,   0.0,  0.00, 
 01/04/13, 04:00,  -2.9,  81,   4.9,   6.0,   5.7,   0.0,  0.00, 
 01/04/13, 05:00,  -2.7,  76,   4.8,   5.9,   5.7,   0.0,  0.00, 
 01/04/13, 06:00,  -2.2,  69,   4.6,   5.8,   5.7,   0.0,  0.01, 
 01/04/13, 07:00,  -0.7,  75,   4.5,   5.7,   5.7,   0.5,  0.70, 
 01/04/13, 08:00,   0.6,  62,   4.4,   5.7,   5.7,   0.0,  1.25, 
 01/04/13, 09:00,   1.7,  59,   4.4,   5.6,   5.7,   0.0,  1.39, 
 01/04/13, 10:00,   2.2,  70,   4.4,   5.5,   5.7,   0.0,  1.61, 
 01/04/13, 11:00,   4.4,  59,   4.7,   5.5,   5.7,   0.0,  2.98, 
 01/04/13, 12:00,   5.2,  57,   5.5,   5.4,   5.7,   0.0,  3.15, 
 01/04/13, 13:00,   5.4,  55,   6.4,   5.4,   5.7,   0.5,  1.95, 
 01/04/13, 14:00,   4.9,  54,   6.8,   5.4,   5.7,   0.0,  1.42, 
 01/04/13, 15:00,   5.2,  53,   6.9,   5.5,   5.7,   0.0,  0.53, 
 01/04/13, 16:00,   5.1,  56,   6.9,   5.6,   5.7,   0.0,  0.86, 
 01/04/13, 17:00,   5.3,  54,   6.8,   5.7,   5.6,   0.0,  1.17, 
 01/04/13, 18:00,   4.1,  60,   6.7,   5.8,   5.6,   0.0,  0.39, 
 01/04/13, 19:00,   1.4,  72,   6.6,   5.9,   5.6,   0.0,  0.00, 
 01/04/13, 20:00,   1.5,  67,   6.2,   5.9,   5.6,   0.5,  0.00, 
 01/04/13, 21:00,   0.5,  74,   5.9,   5.9,   5.6,   0.0,  0.00, 
 01/04/13, 22:00,   0.3,  77,   5.6,   5.9,   5.6,   0.0,  0.00, 
 01/04/13, 23:00,   1.0,  74,   5.4,   5.9,   5.6,   0.0,  0.00, 
 01/04/14, 00:00,   0.8,  74,   5.1,   5.8,   5.6,   0.0,  0.00, 
 01/04/14, 01:00,   1.5,  81,   4.8,   5.8,   5.6,   0.0,  0.00, 
 01/04/14, 02:00,   1.8,  82,   4.6,   5.7,   5.5,   0.0,  0.00, 
 01/04/14, 03:00,   1.7,  84,   4.4,   5.6,   5.5,   0.0,  0.00, 
 01/04/14, 04:00,   1.3,  82,   4.2,   5.5,   5.5,   0.0,  0.00, 
 01/04/14, 05:00,   1.7,  75,   4.1,   5.4,   5.5,   0.0,  0.00, 
 01/04/14, 06:00,   2.8,  71,   3.9,   5.4,   5.5,   0.0,  0.03, 
 01/04/14, 07:00,   4.1,  64,   3.9,   5.3,   5.5,   0.0,  0.45, 
 01/04/14, 08:00,   5.0,  54,   3.9,   5.2,   5.5,   0.0,  0.86, 
 01/04/14, 09:00,   6.3,  52,   4.1,   5.1,   5.6,   0.0,  1.56, 
 01/04/14, 10:00,   7.5,  49,   4.3,   5.0,   5.6,   0.0,  2.51, 
 01/04/14, 11:00,   7.7,  46,   5.1,   5.0,   5.4,   0.0,  2.19, 
 01/04/14, 12:00,   8.4,  41,   5.8,   5.0,   5.5,   0.0,  2.36, 
 01/04/14, 13:00,   8.9,  41,   6.5,   5.2,   5.5,   0.0,  2.19, 
 01/04/14, 14:00,   9.0,  48,   7.0,   5.2,   5.5,   0.0,  1.91, 
 01/04/14, 15:00,   8.3,  48,   7.2,   5.3,   5.5,   0.0,  1.69, 
 01/04/14, 16:00,   6.7,  61,   7.3,   5.4,   5.5,   0.0,  0.63, 
 01/04/14, 17:00,   6.1,  62,   7.3,   5.6,   5.5,   0.0,  0.49, 
 01/04/14, 18:00,   3.0,  99,   7.2,   5.7,   5.5,   0.0,  0.03, 
 01/04/14, 19:00,   2.6,  99,   6.9,   5.8,   5.3,   0.5,  0.00, 
 01/04/14, 20:00,   2.6,  99,   6.7,   5.9,   5.3,   0.0,  0.00, 
 01/04/14, 21:00,   2.1,  96,   6.4,   5.9,   5.3,   0.0,  0.00, 
 01/04/14, 22:00,   0.7,  97,   6.1,   5.9,   5.3,   0.0,  0.00, 
 01/04/14, 23:00,   0.0,  95,   5.9,   5.9,   5.4,   0.0,  0.00, 
 01/04/15, 00:00,   0.0,  92,   5.6,   5.9,   5.4,   0.0,  0.00, 
 01/04/15, 01:00,  -0.8,  95,   5.4,   5.9,   5.4,   0.0,  0.00, 
 01/04/15, 02:00,  -0.4,  85,   5.1,   5.8,   5.4,   0.5,  0.00, 
 01/04/15, 03:00,  -0.5,  80,   4.9,   5.7,   5.4,   0.0,  0.00, 
 01/04/15, 04:00,  -0.2,  69,   4.6,   5.7,   5.4,   0.0,  0.00, 
 01/04/15, 05:00,   0.6,  54,   4.4,   5.6,   5.4,   0.0,  0.00, 
 01/04/15, 06:00,   1.9,  54,   4.2,   5.5,   5.4,   0.0,  0.02, 
 01/04/15, 07:00,   3.7,  48,   4.0,   5.4,   5.4,   0.0,  0.69, 
 01/04/15, 08:00,   4.4,  46,   3.9,   5.3,   5.4,   0.0,  1.50, 
 01/04/15, 09:00,   5.9,  44,   4.0,   5.2,   5.4,   0.0,  2.26, 
 01/04/15, 10:00,   7.1,  45,   4.3,   5.1,   5.4,   0.0,  2.84, 
 01/04/15, 11:00,   8.5,  44,   5.2,   5.1,   5.4,   0.0,  3.15, 
 01/04/15, 12:00,  10.0,  42,   6.4,   5.2,   5.5,   0.0,  3.51, 
 01/04/15, 13:00,   9.3,  36,   7.6,   5.1,   5.4,   0.0,  3.28, 
 01/04/15, 14:00,   8.4,  38,   8.0,   5.3,   5.5,   0.0,  2.66, 
 01/04/15, 15:00,   9.3,  37,   8.0,   5.5,   5.5,   0.0,  2.30, 
 01/04/15, 16:00,   7.8,  42,   7.9,   5.7,   5.5,   0.0,  1.41, 
 01/04/15, 17:00,   6.8,  51,   7.8,   5.8,   5.4,   0.0,  0.70, 
 01/04/15, 18:00,   6.1,  51,   7.7,   6.0,   5.3,   0.0,  0.35, 
 01/04/15, 19:00,   4.2,  57,   7.4,   6.1,   5.3,   0.0,  0.02, 
 01/04/15, 20:00,   4.0,  51,   7.1,   6.1,   5.5,   0.0,  0.00, 
 01/04/15, 21:00,   3.8,  50,   6.8,   6.2,   5.4,   0.0,  0.00, 
 01/04/15, 22:00,   3.8,  42,   6.5,   6.2,   5.4,   0.0,  0.00, 
 01/04/15, 23:00,   2.8,  42,   6.1,   6.2,   5.4,   0.0,  0.00, 
 01/04/16, 00:00,   3.3,  33,   5.8,   6.1,   5.4,   0.0,  0.00, 
 01/04/16, 01:00,   2.9,  35,   5.5,   6.1,   5.5,   0.0,  0.00, 